1 Minute Report
Date Time Wind Direction Wind Speed Wind Gust Wind Variable Altimeter Temperature Dewpoint Relative Humidity Visibility Ceiling Precip Present Weather Density Alt Wind Chill Heat Index
18/10/20 12:20 280 08 N/A N/A 30.38 32(F), 0(C) 30(F), -1(C) 93% 10 CLR N/A N/A N/A 25 F N/A 8669
18/10/20 12:19 280 08 N/A N/A 30.38 32(F), 0(C) 30(F), -1(C) 93% 10 CLR N/A N/A N/A 25 F N/A 8668
18/10/20 12:18 280 08 N/A N/A 30.38 32(F), 0(C) 30(F), -1(C) 93% 10 CLR N/A N/A N/A 25 F N/A 8667
18/10/20 12:17 280 08 N/A N/A 30.38 32(F), 0(C) 30(F), -1(C) 93% 10 CLR N/A N/A N/A 25 F N/A 8666
18/10/20 12:16 280 08 N/A N/A 30.38 32(F), 0(C) 30(F), -1(C) 93% 10 CLR N/A N/A N/A 25 F N/A 8665
18/10/20 12:15 280 08 N/A N/A 30.38 32(F), 0(C) 30(F), -1(C) 93% 10 CLR N/A N/A N/A 25 F N/A 8664
18/10/20 12:14 280 08 N/A N/A 30.38 32(F), 0(C) 30(F), -1(C) 93% 10 CLR N/A N/A N/A 25 F N/A 8663
18/10/20 12:13 280 08 N/A N/A 30.38 32(F), 0(C) 30(F), -1(C) 93% 10 CLR N/A N/A N/A 25 F N/A 8662
18/10/20 12:12 280 08 N/A N/A 30.38 32(F), 0(C) 30(F), -1(C) 93% 10 CLR N/A N/A N/A 25 F N/A 8661
18/10/20 12:11 280 08 N/A N/A 30.38 32(F), 0(C) 30(F), -1(C) 93% 10 CLR N/A N/A N/A 25 F N/A 8660
18/10/20 12:10 280 08 N/A N/A 30.38 32(F), 0(C) 30(F), -1(C) 93% 10 CLR N/A N/A N/A 25 F N/A 8659
18/10/20 12:09 280 08 N/A N/A 30.38 32(F), 0(C) 30(F), -1(C) 93% 10 CLR N/A N/A N/A 25 F N/A 8658
18/10/20 12:08 280 08 N/A N/A 30.38 32(F), 0(C) 30(F), -1(C) 93% 10 CLR N/A N/A N/A 25 F N/A 8657
18/10/20 12:07 280 08 N/A N/A 30.38 32(F), 0(C) 30(F), -1(C) 93% 10 CLR N/A N/A N/A 25 F N/A 8656
18/10/20 12:06 280 08 N/A N/A 30.38 32(F), 0(C) 30(F), -1(C) 93% 10 CLR N/A N/A N/A 25 F N/A 8655
18/10/20 12:05 280 08 N/A N/A 30.38 32(F), 0(C) 30(F), -1(C) 93% 10 CLR N/A N/A N/A 25 F N/A 8654
18/10/20 12:04 280 08 N/A N/A 30.38 32(F), 0(C) 30(F), -1(C) 93% 10 CLR N/A N/A N/A 25 F N/A 8653
18/10/20 12:03 280 08 N/A N/A 30.38 32(F), 0(C) 30(F), -1(C) 93% 10 CLR N/A N/A N/A 25 F N/A 8652
18/10/20 12:02 280 08 N/A N/A 30.38 32(F), 0(C) 30(F), -1(C) 93% 10 CLR N/A N/A N/A 25 F N/A 8651
18/10/20 12:01 280 08 N/A N/A 30.38 32(F), 0(C) 30(F), -1(C) 93% 10 CLR N/A N/A N/A 25 F N/A 8650
18/10/20 12:00 280 08 N/A N/A 30.38 32(F), 0(C) 30(F), -1(C) 93% 10 CLR N/A N/A N/A 25 F N/A 8649
18/10/20 11:59 280 08 N/A N/A 30.38 32(F), 0(C) 30(F), -1(C) 93% 10 CLR N/A N/A N/A 25 F N/A 8648
18/10/20 11:58 280 08 N/A N/A 30.37 32(F), 0(C) 30(F), -1(C) 93% 10 CLR N/A N/A N/A 25 F N/A 8647
18/10/20 11:57 280 08 N/A N/A 30.37 32(F), 0(C) 30(F), -1(C) 93% 10 CLR N/A N/A N/A 25 F N/A 8646
18/10/20 11:56 280 08 N/A N/A 30.37 33(F), 1(C) 30(F), -1(C) 86% 10 CLR N/A N/A N/A 26 F N/A 8645
18/10/20 11:55 280 08 N/A N/A 30.37 33(F), 1(C) 30(F), -1(C) 86% 10 CLR N/A N/A N/A 26 F N/A 8644
18/10/20 11:54 280 08 N/A N/A 30.37 33(F), 1(C) 30(F), -1(C) 86% 10 CLR N/A N/A N/A 26 F N/A 8643
18/10/20 11:53 280 08 N/A N/A 30.37 33(F), 1(C) 30(F), -1(C) 86% 10 CLR N/A N/A N/A 26 F N/A 8642
18/10/20 11:52 280 09 N/A N/A 30.37 33(F), 1(C) 30(F), -1(C) 86% 10 CLR N/A N/A N/A 25 F N/A 8641
18/10/20 11:51 280 09 N/A N/A 30.37 33(F), 1(C) 30(F), -1(C) 86% 10 CLR N/A N/A N/A 25 F N/A 8640
18/10/20 11:50 280 09 N/A N/A 30.37 33(F), 1(C) 30(F), -1(C) 86% 10 CLR N/A N/A N/A 25 F N/A 8639
18/10/20 11:49 280 08 N/A N/A 30.37 33(F), 1(C) 30(F), -1(C) 86% 10 CLR N/A N/A N/A 26 F N/A 8638
18/10/20 11:48 280 08 N/A N/A 30.37 33(F), 1(C) 30(F), -1(C) 86% 10 CLR N/A N/A N/A 26 F N/A 8637
18/10/20 11:47 280 09 N/A N/A 30.37 33(F), 1(C) 30(F), -1(C) 86% 10 CLR N/A N/A N/A 25 F N/A 8636
18/10/20 11:46 280 08 N/A N/A 30.37 33(F), 1(C) 30(F), -1(C) 86% 10 CLR N/A N/A N/A 26 F N/A 8635
18/10/20 11:45 280 08 N/A N/A 30.37 33(F), 1(C) 30(F), -1(C) 86% 10 CLR N/A N/A N/A 26 F N/A 8634
18/10/20 11:44 280 09 N/A N/A 30.37 33(F), 1(C) 30(F), -1(C) 86% 10 CLR N/A N/A N/A 25 F N/A 8633
18/10/20 11:43 280 09 N/A N/A 30.37 33(F), 1(C) 30(F), -1(C) 86% 10 CLR N/A N/A N/A 25 F N/A 8632
18/10/20 11:42 280 09 N/A N/A 30.37 33(F), 1(C) 30(F), -1(C) 86% 10 CLR N/A N/A N/A 25 F N/A 8631
18/10/20 11:41 280 09 N/A N/A 30.37 33(F), 1(C) 30(F), -1(C) 86% 10 CLR N/A N/A N/A 25 F N/A 8630
18/10/20 11:40 280 09 N/A N/A 30.37 33(F), 1(C) 31(F), -1(C) 86% 10 CLR N/A N/A N/A 25 F N/A 8629
18/10/20 11:39 280 09 N/A N/A 30.37 33(F), 1(C) 31(F), -1(C) 86% 10 CLR N/A N/A N/A 25 F N/A 8628
18/10/20 11:38 280 09 N/A N/A 30.37 33(F), 1(C) 31(F), -1(C) 86% 10 CLR N/A N/A N/A 25 F N/A 8627
18/10/20 11:37 280 09 N/A N/A 30.37 33(F), 1(C) 31(F), -1(C) 86% 10 CLR N/A N/A N/A 25 F N/A 8626
18/10/20 11:36 280 09 N/A N/A 30.37 33(F), 1(C) 31(F), -1(C) 86% 10 CLR N/A N/A N/A 25 F N/A 8625
18/10/20 11:35 280 09 N/A N/A 30.37 33(F), 1(C) 31(F), -1(C) 86% 10 CLR N/A N/A N/A 25 F N/A 8624
18/10/20 11:34 280 09 N/A N/A 30.37 33(F), 1(C) 31(F), -1(C) 86% 10 CLR N/A N/A N/A 25 F N/A 8623
18/10/20 11:33 280 09 N/A N/A 30.37 33(F), 1(C) 31(F), -1(C) 86% 10 CLR N/A N/A N/A 25 F N/A 8622
18/10/20 11:32 280 08 N/A N/A 30.37 32(F), 0(C) 31(F), -1(C) 93% 10 CLR N/A N/A N/A 25 F N/A 8621
18/10/20 11:31 280 08 N/A N/A 30.37 32(F), 0(C) 30(F), -1(C) 93% 10 CLR N/A N/A N/A 25 F N/A 8620
18/10/20 11:30 280 08 N/A N/A 30.37 32(F), 0(C) 30(F), -1(C) 93% 10 CLR N/A N/A N/A 25 F N/A 8619
18/10/20 11:29 280 08 N/A N/A 30.37 32(F), 0(C) 30(F), -1(C) 93% 10 CLR N/A N/A N/A 25 F N/A 8618
18/10/20 11:28 270 08 N/A N/A 30.37 32(F), 0(C) 30(F), -1(C) 93% 10 CLR N/A N/A N/A 25 F N/A 8617
18/10/20 11:27 270 08 N/A N/A 30.37 32(F), 0(C) 30(F), -1(C) 93% 10 CLR N/A N/A N/A 25 F N/A 8616
18/10/20 11:26 280 08 N/A N/A 30.37 32(F), 0(C) 30(F), -1(C) 93% 10 CLR N/A N/A N/A 25 F N/A 8615
18/10/20 11:25 280 08 N/A N/A 30.37 32(F), 0(C) 30(F), -1(C) 93% 10 CLR N/A N/A N/A 25 F N/A 8614
18/10/20 11:24 280 07 N/A N/A 30.37 32(F), 0(C) 30(F), -1(C) 93% 10 CLR N/A N/A N/A 25 F N/A 8613
18/10/20 11:23 280 07 N/A N/A 30.37 32(F), 0(C) 30(F), -1(C) 93% 10 CLR N/A N/A N/A 25 F N/A 8612
18/10/20 11:22 280 07 N/A N/A 30.37 32(F), 0(C) 30(F), -1(C) 93% 10 CLR N/A N/A N/A 25 F N/A 8611
18/10/20 11:21 280 07 N/A N/A 30.37 32(F), 0(C) 30(F), -1(C) 93% 10 CLR N/A N/A N/A 25 F N/A 8610
18/10/20 11:20 280 07 N/A N/A 30.37 32(F), 0(C) 30(F), -1(C) 93% 10 CLR N/A N/A N/A 25 F N/A 8609
18/10/20 11:19 280 07 N/A N/A 30.37 32(F), 0(C) 30(F), -1(C) 93% 10 CLR N/A N/A N/A 25 F N/A 8608
18/10/20 11:18 270 07 N/A N/A 30.37 32(F), 0(C) 30(F), -1(C) 93% 10 CLR N/A N/A N/A 25 F N/A 8607
18/10/20 11:17 270 07 N/A N/A 30.37 32(F), 0(C) 30(F), -1(C) 93% 10 CLR N/A N/A N/A 25 F N/A 8606
18/10/20 11:16 270 07 N/A N/A 30.37 32(F), 0(C) 30(F), -1(C) 93% 10 CLR N/A N/A N/A 25 F N/A 8605
18/10/20 11:15 270 07 N/A N/A 30.37 32(F), 0(C) 30(F), -1(C) 93% 10 CLR N/A N/A N/A 25 F N/A 8604
18/10/20 11:14 270 07 N/A N/A 30.37 32(F), 0(C) 30(F), -1(C) 93% 10 CLR N/A N/A N/A 25 F N/A 8603
18/10/20 11:13 270 07 N/A N/A 30.37 32(F), 0(C) 30(F), -1(C) 93% 10 CLR N/A N/A N/A 25 F N/A 8602
18/10/20 11:12 280 07 N/A N/A 30.37 32(F), 0(C) 30(F), -1(C) 93% 10 CLR N/A N/A N/A 25 F N/A 8601
18/10/20 11:11 280 07 N/A N/A 30.37 32(F), 0(C) 30(F), -1(C) 93% 10 CLR N/A N/A N/A 25 F N/A 8600
18/10/20 11:10 280 07 N/A N/A 30.37 32(F), 0(C) 30(F), -1(C) 93% 10 CLR N/A N/A N/A 25 F N/A 8599
18/10/20 11:09 280 07 N/A N/A 30.37 32(F), 0(C) 30(F), -1(C) 93% 10 CLR N/A N/A N/A 25 F N/A 8598
18/10/20 11:08 280 07 N/A N/A 30.37 32(F), 0(C) 30(F), -1(C) 93% 10 CLR N/A N/A N/A 25 F N/A 8597
18/10/20 11:07 270 07 N/A N/A 30.37 32(F), 0(C) 30(F), -1(C) 93% 10 CLR N/A N/A N/A 25 F N/A 8596
18/10/20 11:06 270 08 N/A N/A 30.36 32(F), 0(C) 30(F), -1(C) 93% 10 CLR N/A N/A N/A 25 F N/A 8595
18/10/20 11:05 270 08 N/A N/A 30.36 32(F), 0(C) 30(F), -1(C) 93% 10 CLR N/A N/A N/A 25 F N/A 8594
18/10/20 11:04 270 08 N/A N/A 30.36 32(F), 0(C) 30(F), -1(C) 93% 10 CLR N/A N/A N/A 25 F N/A 8593
18/10/20 11:03 270 08 N/A N/A 30.36 32(F), 0(C) 30(F), -1(C) 93% 10 CLR N/A N/A N/A 25 F N/A 8592
18/10/20 11:02 270 07 N/A N/A 30.36 32(F), 0(C) 30(F), -1(C) 93% 10 CLR N/A N/A N/A 25 F N/A 8591
18/10/20 11:01 270 07 N/A N/A 30.36 32(F), 0(C) 30(F), -1(C) 93% 10 CLR N/A N/A N/A 25 F N/A 8590
18/10/20 11:00 270 06 N/A N/A 30.36 32(F), 0(C) 30(F), -1(C) 93% 10 CLR N/A N/A N/A 26 F N/A 8589
18/10/20 10:59 270 07 N/A N/A 30.36 32(F), 0(C) 30(F), -1(C) 93% 10 CLR N/A N/A N/A 25 F N/A 8588
18/10/20 10:58 270 07 N/A N/A 30.36 32(F), 0(C) 30(F), -1(C) 93% 10 CLR N/A N/A N/A 25 F N/A 8587
18/10/20 10:57 270 07 N/A N/A 30.36 32(F), 0(C) 30(F), -1(C) 93% 10 CLR N/A N/A N/A 25 F N/A 8586
18/10/20 10:56 270 07 N/A N/A 30.36 32(F), 0(C) 30(F), -1(C) 93% 10 CLR N/A N/A N/A 25 F N/A 8585
18/10/20 10:55 270 07 N/A N/A 30.36 32(F), 0(C) 30(F), -1(C) 93% 10 CLR N/A N/A N/A 25 F N/A 8584
18/10/20 10:54 270 07 N/A N/A 30.36 32(F), 0(C) 30(F), -1(C) 93% 10 CLR N/A N/A N/A 25 F N/A 8583
18/10/20 10:53 270 07 N/A N/A 30.36 32(F), 0(C) 30(F), -1(C) 93% 10 CLR N/A N/A N/A 25 F N/A 8582
18/10/20 10:52 270 07 N/A N/A 30.36 32(F), 0(C) 30(F), -1(C) 93% 10 CLR N/A N/A N/A 25 F N/A 8581
18/10/20 10:51 270 07 N/A N/A 30.36 32(F), 0(C) 30(F), -1(C) 93% 10 CLR N/A N/A N/A 25 F N/A 8580
18/10/20 10:50 270 07 N/A N/A 30.36 33(F), 1(C) 30(F), -1(C) 86% 10 CLR N/A N/A N/A 27 F N/A 8579
18/10/20 10:49 270 07 N/A N/A 30.36 33(F), 1(C) 30(F), -1(C) 86% 10 CLR N/A N/A N/A 27 F N/A 8578
18/10/20 10:48 270 07 N/A N/A 30.36 33(F), 1(C) 30(F), -1(C) 86% 10 CLR N/A N/A N/A 27 F N/A 8577
18/10/20 10:47 270 07 N/A N/A 30.36 33(F), 1(C) 30(F), -1(C) 86% 10 CLR N/A N/A N/A 27 F N/A 8576
18/10/20 10:46 270 07 N/A N/A 30.36 33(F), 1(C) 30(F), -1(C) 86% 10 CLR N/A N/A N/A 27 F N/A 8575
18/10/20 10:45 270 07 N/A N/A 30.36 33(F), 1(C) 30(F), -1(C) 86% 10 CLR N/A N/A N/A 27 F N/A 8574
18/10/20 10:44 270 07 N/A N/A 30.36 33(F), 1(C) 30(F), -1(C) 86% 10 CLR N/A N/A N/A 27 F N/A 8573
18/10/20 10:43 270 07 N/A N/A 30.36 33(F), 1(C) 30(F), -1(C) 86% 10 CLR N/A N/A N/A 27 F N/A 8572
18/10/20 10:42 270 07 N/A N/A 30.36 34(F), 1(C) 31(F), -1(C) 86% 10 CLR N/A N/A N/A 28 F N/A 8571
18/10/20 10:41 270 06 N/A N/A 30.35 34(F), 1(C) 31(F), -1(C) 86% 10 CLR N/A N/A N/A 29 F N/A 8570
18/10/20 10:40 270 06 N/A N/A 30.35 35(F), 2(C) 32(F), 0(C) 87% 10 CLR N/A N/A N/A 30 F N/A 8569
18/10/20 10:39 270 06 N/A N/A 30.35 35(F), 2(C) 32(F), 0(C) 87% 10 CLR N/A N/A N/A 30 F N/A 8568
18/10/20 10:38 270 06 N/A N/A 30.35 35(F), 2(C) 32(F), 0(C) 87% 10 CLR N/A N/A N/A 30 F N/A 8567
18/10/20 10:37 280 07 N/A N/A 30.35 35(F), 2(C) 32(F), 0(C) 87% 10 CLR N/A N/A N/A 29 F N/A 8566
18/10/20 10:36 280 07 N/A N/A 30.35 35(F), 2(C) 32(F), 0(C) 87% 10 CLR N/A N/A N/A 29 F N/A 8565
18/10/20 10:35 280 07 N/A N/A 30.35 35(F), 2(C) 32(F), 0(C) 87% 10 CLR N/A N/A N/A 29 F N/A 8564
18/10/20 10:34 280 08 N/A N/A 30.35 35(F), 2(C) 32(F), 0(C) 87% 10 CLR N/A N/A N/A 28 F N/A 8563
18/10/20 10:33 280 08 N/A N/A 30.35 35(F), 2(C) 32(F), 0(C) 87% 10 CLR N/A N/A N/A 28 F N/A 8562
18/10/20 10:32 280 08 N/A N/A 30.35 35(F), 2(C) 32(F), 0(C) 87% 10 CLR N/A N/A N/A 28 F N/A 8561
18/10/20 10:31 280 08 N/A N/A 30.35 35(F), 2(C) 32(F), 0(C) 87% 10 CLR N/A N/A N/A 28 F N/A 8560
18/10/20 10:30 280 08 N/A N/A 30.35 35(F), 2(C) 32(F), 0(C) 87% 10 CLR N/A N/A N/A 28 F N/A 8559
18/10/20 10:29 280 08 N/A N/A 30.35 35(F), 2(C) 32(F), 0(C) 87% 10 CLR N/A N/A N/A 28 F N/A 8558
18/10/20 10:28 280 08 N/A N/A 30.35 35(F), 2(C) 32(F), 0(C) 87% 10 CLR N/A N/A N/A 28 F N/A 8557
18/10/20 10:27 280 07 N/A N/A 30.35 35(F), 2(C) 32(F), 0(C) 87% 10 CLR N/A N/A N/A 29 F N/A 8556
18/10/20 10:26 280 07 N/A N/A 30.35 35(F), 2(C) 32(F), 0(C) 87% 10 CLR N/A N/A N/A 29 F N/A 8555
18/10/20 10:25 280 07 N/A N/A 30.35 35(F), 2(C) 32(F), 0(C) 87% 10 CLR N/A N/A N/A 29 F N/A 8554
18/10/20 10:24 280 07 N/A N/A 30.35 35(F), 2(C) 32(F), 0(C) 87% 10 CLR N/A N/A N/A 29 F N/A 8553
18/10/20 10:23 280 07 N/A N/A 30.35 35(F), 2(C) 32(F), 0(C) 87% 10 CLR N/A N/A N/A 29 F N/A 8552
18/10/20 10:22 270 07 N/A N/A 30.35 35(F), 2(C) 32(F), 0(C) 87% 10 CLR N/A N/A N/A 29 F N/A 8551
18/10/20 10:21 270 07 N/A N/A 30.35 35(F), 2(C) 32(F), 0(C) 87% 10 CLR N/A N/A N/A 29 F N/A 8550
18/10/20 10:20 280 08 N/A N/A 30.35 35(F), 2(C) 31(F), -1(C) 80% 10 CLR N/A N/A N/A 28 F N/A 8549